Regional Weather Roundup
Issued by NWS

Home | Current Version | Previous Version | Text Only | Print | Product List | Glossary Off
Versions: 1 2 3 4 5 6 7 8 9 10 11 12 13 14 15 16 17 18 19 20 21 22 23 24 25 26 27 28 29 30 31 32 33 34 35 36 37 38 39 40 41 42 43 44 45 46 47 48 49 50

000
ASUS43 KIND 181600
RWRIN

WEATHER ROUNDUP FOR INDIANA
NATIONAL WEATHER SERVICE INDIANAPOLIS IN
1200 PM EDT WED OCT 18 2017

NOTE: "FAIR" INDICATES FEW OR NO CLOUDS BELOW 12,000 FEET WITH NO
SIGNIFICANT WEATHER AND/OR OBSTRUCTIONS TO VISIBILITY.

* - STATION DOES NOT REPORT WEATHER SUCH AS PRECIPITATION OR FOG.

+ - STATION NOT QUALITY CONTROLLED BY THE NATIONAL WEATHER SERVICE.
    USE DATA WITH CAUTION...ESPECIALLY DEWPOINT AND RELATIVE
    HUMIDITY OBSERVATIONS.

INZ001>003-010>013-019-020-181700-
NORTHWEST INDIANA

CITY           SKY/WX    TMP DP  RH WIND       PRES   REMARKS
GARY /AIRPORT/ SUNNY     63  41  45 S13       30.18F
MICHIGAN CITY+ SUNNY     61  45  55 S12G17    30.19F
MONTICELLO +   SUNNY     61  43  51 S10       30.24F
RENSSELAER +   SUNNY     63  32  31 S13G18    30.22F

$$

LMZ046-743>745-181700-
SOUTHERN LAKE MICHIGAN

STATION/POSITION TIME  TEMP    WIND        PRES    WAVE
                       AIR SEA DIR/SP/G            HT
                 (UTC) (F)     (DEG/KT/KT) (MB)    (FT)
BURNS HARBOR     1540   60     190/ 13/ 18 1022.4F
MICHIGAN CITY    1530   58     180/ 13/ 15   N/A
5NW MICH CITY    1550   58 57  200/ 14/ 17   N/A     2

$$

INZ004-005-014>016-021>024-181700-
NORTH CENTRAL INDIANA

CITY           SKY/WX    TMP DP  RH WIND       PRES   REMARKS
ELKHART        SUNNY     61  43  51 SW13G20   30.22F
GOSHEN         SUNNY     61  42  49 SW14      30.23F
PERU/GRISSOM   SUNNY     62  45  52 SW10      30.25F
SOUTH BEND     SUNNY     60  43  53 SW17      30.22F

$$

INZ006>009-017-018-025>027-181700-
NORTHEAST INDIANA

CITY           SKY/WX    TMP DP  RH WIND       PRES   REMARKS
FORT WAYNE     MOSUNNY   63  43  48 S14       30.27F
KENDALLVILLE + SUNNY     61  44  52 SW16G23   30.25F

$$

INZ028-029-035-036-043>045-051>053-181700-
WEST CENTRAL INDIANA

CITY           SKY/WX    TMP DP  RH WIND       PRES   REMARKS
GREENCASTLE +  SUNNY     61  43  51 S8        30.28F
LAFAYETTE      SUNNY     62  44  51 S13       30.24F
TERRE HAUTE    SUNNY     63  45  51 S8        30.27S

$$

INZ030>032-037>040-046>048-054>057-064-065-181700-
CENTRAL INDIANA

CITY           SKY/WX    TMP DP  RH WIND       PRES   REMARKS
COLUMBUS       MOSUNNY   59  43  55 SW8       30.31S
INDIANAPOLIS   MOSUNNY   62  45  53 SW12      30.29S
-EAGLE CREEK   SUNNY     62  43  49 S10       30.27F
MT COMFORT *+  SUNNY     63  48  59 SW9       30.29S
SHELBYVILLE    SUNNY     63  43  48 S9        30.29F

$$

INZ033-034-041-042-049-050-058-059-181700-
EAST CENTRAL INDIANA

CITY           SKY/WX    TMP DP  RH WIND       PRES   REMARKS
MUNCIE         SUNNY     65  42  43 S9        30.28F
RICHMOND +     SUNNY     61  43  51 S8        30.31F

$$

INZ060-061-067>069-081>083-085>088-181700-
SOUTHWEST INDIANA

CITY           SKY/WX    TMP DP  RH WIND       PRES   REMARKS
EVANSVILLE     SUNNY     65  46  50 SW10      30.29F
HUNTINGBURG +  SUNNY     64  48  56 S8        30.30F

$$

INZ062-063-066-070>080-084-089>092-181700-
SOUTH CENTRAL AND SOUTHEAST INDIANA

CITY           SKY/WX    TMP DP  RH WIND       PRES   REMARKS
BLOOMINGTON    SUNNY     64  41  42 SW10      30.29F
MADISON *+     SUNNY     63  45  51 S6        30.34S

$$





USA.gov is the U.S. government's official web portal to all federal, state and local government web resources and services.